Location: Rancho Del Sol Observatory
(38.7214°N, 120.6350°W)
Time: 07:46:42
(UTC-07:00)

Cosmos 2221 Rocket - Visible Passes

Search period start: 29 July 2014 00:00
Search period end: 08 August 2014 00:00
Orbit: 621 x 650 km, 82.5° (Epoch: 28 July)

Date Brightness Start Highest point End Pass type
(mag) Time Alt. Az. Time Alt. Az. Time Alt. Az.
29 Jul 6.4 05:05:06 10° SE 05:08:07 18° E 05:11:08 10° NE visible
30 Jul 5.1 05:26:27 10° SSE 05:30:33 39° E 05:34:39 10° NNE visible
01 Aug 6.4 04:35:28 10° ESE 04:38:00 15° E 04:40:33 10° NE visible
02 Aug 5.4 04:56:29 10° SSE 05:00:24 32° E 05:04:20 10° NNE visible
03 Aug 3.8 05:18:34 10° S 05:22:56 74° E 05:27:21 10° N visible
04 Aug 6.5 04:06:01 10° ESE 04:07:54 13° E 04:09:47 10° ENE visible
05 Aug 5.6 04:26:34 10° SSE 04:30:16 27° E 04:33:58 10° NNE visible
06 Aug 4.1 04:48:26 10° S 04:52:45 60° E 04:57:07 10° NNE visible
07 Aug 6.6 03:37:14 10° E 03:37:48 10° E 03:38:22 10° ENE visible
07 Aug 3.6 05:11:04 10° SSW 05:15:24 60° W 05:19:46 10° N visible
